Overview Statistics Trail Chart Weather Telemetry Raw packets
 

This is the latest recevied weather packets stored in our database for station/object KD4EED. If no packets are shown the sender has not sent any weather packets the latest 10 day(s).

<< 98 99 100 101 102 103 104 >>
Time Temp. Humidity Pressure Rain* Wind** Luminosity Snow
1787942720 33.89° C 49% 1009.9 hPa - - 607 W/m² -
1787942415 33.89° C 49% 1010.1 hPa - - 557 W/m² -
1787942114 33.89° C 50% 1010.1 hPa - - 542 W/m² -
1787941810 33.89° C 51% 1010 hPa - - 568 W/m² -
1787941510 33.89° C 50% 1010.2 hPa - - 562 W/m² -
1787941210 33.89° C 50% 1010 hPa - - 516 W/m² -
1787940914 33.33° C 51% 1010 hPa - - 521 W/m² -
1787940602 32.78° C 51% 1010 hPa - - 479 W/m² -
1787940296 32.78° C 51% 1009.7 hPa - - 486 W/m² -
1787939996 32.22° C 53% 1009.9 hPa - - 499 W/m² -
1787939695 32.22° C 53% 1010.2 hPa - - 510 W/m² -
1787939390 31.11° C 55% 1009.8 hPa - - 476 W/m² -
1787939085 30.56° C 57% 1009.9 hPa - - 477 W/m² -
1787938784 30° C 58% 1009.9 hPa - - 477 W/m² -
1787938480 30° C 60% 1009.8 hPa - - 470 W/m² -
1787938175 29.44° C 62% 1010.1 hPa - - 245 W/m² -
1787937876 29.44° C 62% 1009.9 hPa - - 74 W/m² -
1787937572 28.89° C 63% 1010 hPa - - 70 W/m² -
1787937267 28.89° C 64% 1010 hPa - - 87 W/m² -
1787936963 28.89° C 64% 1010.1 hPa - - 76 W/m² -
1787936661 28.33° C 66% 1009.9 hPa - - 84 W/m² -
1787936356 28.33° C 66% 1009.9 hPa - - 75 W/m² -
1787936052 28.33° C 66% 1009.6 hPa - - 63 W/m² -
1787935747 27.78° C 67% 1009.5 hPa - - 56 W/m² -
1787935443 27.78° C 67% 1009.3 hPa - - 52 W/m² -

* Rain since midnight (hover to see other rain measurements)
** Current wind speed in m/s (hover to see current wind gust speed)